IU7TPK-1 Weather Reports


Display with metric or nautical units.
time (UTC)temp
F
wind
direction
speed
MPH
gust
MPH
rain 1hr
in
rain 24hr
in
rain mn
in
humidity
%
barometer
mb
20260507195504 61 34 0.0 3.0 0.00 0.21 0.21 60 1013.0
20260507195004 61 34 0.0 2.0 0.00 0.21 0.21 60 1013.0
20260507194506 61 35 0.0 3.0 0.00 0.21 0.21 60 1013.0
20260507194003 61 35 0.0 3.0 0.00 0.21 0.21 60 1013.0
20260507193504 61 37 0.0 3.0 0.00 0.21 0.21 60 1013.0
20260507193007 61 41 0.0 3.0 0.00 0.21 0.21 59 1013.0
20260507192503 61 45 0.0 3.0 0.00 0.21 0.21 59 1013.0
20260507192003 61 43 0.0 3.0 0.00 0.21 0.21 59 1013.0
20260507191507 62 44 0.0 3.0 0.00 0.21 0.21 59 1013.0
20260507191004 62 48 2.0 3.0 0.00 0.21 0.21 58 1013.0
20260507190504 62 46 0.0 3.0 0.00 0.21 0.21 58 1013.0
20260507190006 62 43 0.0 3.0 0.00 0.21 0.21 57 1013.0
20260507185504 62 38 2.0 3.0 0.00 0.21 0.21 55 1013.0
20260507185003 63 45 2.0 4.0 0.00 0.21 0.21 54 1013.0
20260507184506 63 73 0.0 4.0 0.00 0.21 0.21 53 1013.0
20260507184004 64 103 2.0 4.0 0.00 0.21 0.21 52 1013.0
20260507183504 64 110 3.0 4.0 0.00 0.21 0.21 52 1013.0
20260507183006 64 114 2.0 4.0 0.00 0.21 0.21 51 1013.0
20260507181507 64 111 2.0 4.0 0.00 0.21 0.21 51 1013.0
20260507181004 64 106 0.0 4.0 0.00 0.21 0.21 51 1013.0
20260507180503 64 97 2.0 3.0 0.00 0.21 0.21 51 1013.0
20260507180006 64 90 0.0 3.0 0.00 0.21 0.21 51 1013.0
20260507175504 64 96 0.0 3.0 0.00 0.21 0.21 50 1013.0
20260507175003 65 112 0.0 3.0 0.00 0.21 0.21 50 1012.0
20260507174506 65 131 0.0 3.0 0.00 0.21 0.21 49 1012.0
20260507174004 65 130 0.0 2.0 0.00 0.21 0.21 49 1012.0
20260507173504 66 142 0.0 4.0 0.00 0.21 0.21 48 1013.0
20260507173006 65 136 0.0 4.0 0.00 0.21 0.21 48 1013.0
20260507172004 66 152 3.0 4.0 0.00 0.21 0.21 48 1012.0
20260507171506 66 137 0.0 3.0 0.00 0.21 0.21 47 1012.0
20260507171004 66 150 0.0 4.0 0.00 0.21 0.21 46 1012.0
20260507170503 67 160 2.0 4.0 0.00 0.21 0.21 46 1013.0
20260507170007 67 145 0.0 3.0 0.00 0.21 0.21 46 1013.0
20260507165503 67 142 2.0 3.0 0.00 0.21 0.21 45 1013.0
20260507165004 67 142 0.0 4.0 0.00 0.21 0.21 45 1013.0
20260507164506 67 139 0.0 4.0 0.00 0.21 0.21 44 1013.0
20260507164004 67 142 2.0 3.0 0.00 0.21 0.21 43 1013.0
20260507162007 68 153 4.0 5.0 0.00 0.21 0.21 42 1012.0
20260507161509 69 142 2.0 5.0 0.00 0.21 0.21 42 1012.0
20260507161006 68 129 0.0 5.0 0.00 0.21 0.21 41 1012.0
20260507160506 69 139 3.0 6.0 0.00 0.21 0.21 41 1012.0
20260507160010 69 149 4.0 6.0 0.00 0.21 0.21 41 1012.0
20260507155507 69 149 4.0 6.0 0.00 0.21 0.21 42 1012.0
20260507154510 69 156 3.0 6.0 0.00 0.21 0.21 39 1013.0
20260507154008 69 151 3.0 6.0 0.00 0.21 0.21 39 1013.0
20260507153506 70 143 2.0 6.0 0.00 0.21 0.21 39 1013.0
20260507153010 70 145 2.0 6.0 0.00 0.21 0.21 39 1013.0
20260507152507 70 145 4.0 6.0 0.00 0.21 0.21 39 1013.0
20260507152007 71 140 3.0 5.0 0.00 0.21 0.21 39 1013.0
20260507151509 70 143 4.0 6.0 0.00 0.21 0.21 38 1013.0
20260507151006 70 137 4.0 6.0 0.00 0.21 0.21 37 1013.0
20260507150009 72 147 3.0 6.0 0.00 0.21 0.21 38 1013.0
20260507145506 70 149 4.0 6.0 0.00 0.21 0.21 37 1013.0
20260507145006 71 152 4.0 6.0 0.00 0.21 0.21 38 1013.0
20260507144007 72 147 4.0 8.0 0.00 0.21 0.21 37 1013.0
20260507143507 72 147 4.0 8.0 0.00 0.21 0.21 37 1013.0
20260507143009 72 146 4.0 8.0 0.00 0.21 0.21 37 1013.0
20260507142506 72 146 4.0 6.0 0.00 0.21 0.21 37 1013.0
20260507142006 73 152 4.0 6.0 0.00 0.21 0.21 38 1013.0
20260507141509 73 152 0.0 8.0 0.00 0.21 0.21 40 1013.0
20260507140507 73 149 4.0 6.0 0.00 0.21 0.21 39 1013.0
20260507140010 73 147 4.0 6.0 0.00 0.21 0.21 41 1013.0
20260507135506 74 153 4.0 6.0 0.00 0.21 0.21 40 1013.0
20260507134509 73 149 4.0 6.0 0.00 0.21 0.21 42 1013.0
20260507132507 73 164 3.0 6.0 0.00 0.21 0.21 45 1014.0
20260507132007 71 168 4.0 6.0 0.00 0.21 0.21 46 1014.0
20260507131510 71 171 4.0 6.0 0.00 0.21 0.21 46 1014.0
20260507131007 72 167 2.0 6.0 0.00 0.21 0.21 48 1014.0
20260507130507 72 160 3.0 6.0 0.00 0.21 0.21 50 1014.0
20260507130009 73 155 4.0 5.0 0.00 0.21 0.21 51 1014.0
20260507125506 71 154 0.0 5.0 0.00 0.21 0.21 53 1014.0
20260507124510 71 154 4.0 6.0 0.00 0.21 0.21 59 1014.0
20260507124006 71 145 0.0 6.0 0.00 0.21 0.21 59 1014.0
20260507123506 70 143 4.0 6.0 0.00 0.21 0.21 62 1013.0
20260507122507 69 156 3.0 6.0 0.00 0.21 0.21 66 1013.0
20260507122007 69 149 3.0 5.0 0.00 0.21 0.21 68 1014.0
20260507121510 68 145 0.0 4.0 0.00 0.21 0.21 68 1014.0
20260507121006 67 141 2.0 5.0 0.00 0.21 0.21 69 1014.0
20260507120506 67 141 4.0 5.0 0.00 0.21 0.21 68 1014.0
20260507120010 67 157 3.0 5.0 0.00 0.21 0.21 69 1014.0
20260507115507 67 159 3.0 6.0 0.00 0.21 0.21 68 1014.0
20260507115007 68 155 3.0 6.0 0.00 0.21 0.21 69 1014.0
20260507114006 68 152 3.0 6.0 0.00 0.21 0.21 70 1014.0
20260507113009 67 150 3.0 5.0 0.00 0.21 0.21 70 1014.0
20260507112506 67 150 3.0 5.0 0.00 0.21 0.21 69 1014.0
20260507112007 67 145 4.0 6.0 0.00 0.21 0.21 70 1015.0
20260507111006 67 147 4.0 6.0 0.00 0.21 0.21 70 1015.0
20260507110506 67 144 2.0 6.0 0.00 0.21 0.21 71 1015.0
20260507110009 67 150 2.0 5.0 0.00 0.21 0.21 71 1015.0
20260507105507 66 144 4.0 8.0 0.00 0.21 0.21 70 1015.0
20260507105007 67 144 4.0 8.0 0.00 0.21 0.21 70 1015.0
20260507104006 66 144 3.0 6.0 0.00 0.21 0.21 71 1015.0
20260507103507 66 145 3.0 6.0 0.00 0.21 0.21 71 1015.0
20260507103009 67 147 2.0 6.0 0.00 0.21 0.21 72 1015.0
20260507102506 67 150 2.0 7.0 0.00 0.21 0.21 71 1015.0
20260507102007 67 148 4.0 7.0 0.00 0.21 0.21 71 1015.0
20260507101509 68 149 3.0 7.0 0.00 0.21 0.21 72 1015.0
20260507101007 67 147 3.0 7.0 0.00 0.21 0.21 73 1015.0
20260507100507 68 146 2.0 6.0 0.00 0.21 0.21 73 1015.0
20260507100009 68 141 4.0 8.0 0.00 0.21 0.21 75 1015.0
20260507095506 68 139 2.0 8.0 0.00 0.21 0.21 76 1015.0
20260507095006 67 130 4.0 6.0 0.00 0.21 0.21 76 1015.0
20260507094006 66 143 3.0 6.0 0.00 0.21 0.21 77 1015.0
20260507093506 66 128 4.0 6.0 0.00 0.21 0.21 78 1014.0
20260507092507 66 119 3.0 5.0 0.00 0.21 0.21 79 1014.0
20260507092007 66 110 3.0 4.0 0.00 0.21 0.21 80 1015.0
20260507091510 65 114 0.0 3.0 0.00 0.21 0.21 82 1015.0
20260507091006 65 141 0.0 5.0 0.00 0.21 0.21 82 1015.0
20260507090507 64 133 0.0 6.0 0.00 0.21 0.21 82 1015.0
20260507090010 64 117 0.0 6.0 0.00 0.21 0.21 83 1015.0
20260507085506 64 109 3.0 6.0 0.00 0.21 0.21 83 1015.0
20260507085006 63 97 4.0 6.0 0.00 0.21 0.21 84 1014.0
20260507084510 63 94 3.0 5.0 0.00 0.21 0.21 85 1014.0
20260507084006 63 107 3.0 6.0 0.00 0.21 0.21 85 1014.0
20260507083009 63 89 3.0 6.0 0.00 0.21 0.21 85 1014.0
20260507082506 63 73 0.0 6.0 0.00 0.21 0.21 86 1014.0
20260507082007 62 54 3.0 6.0 0.00 0.21 0.21 87 1014.0
20260507081006 62 41 4.0 8.0 0.00 0.21 0.21 89 1014.0
20260507080506 62 51 4.0 6.0 0.00 0.21 0.21 90 1014.0
20260507075506 62 49 4.0 6.0 0.00 0.21 0.21 90 1014.0
20260507075006 62 52 4.0 6.0 0.00 0.21 0.21 90 1014.0
20260507074006 62 47 4.0 8.0 0.00 0.21 0.21 90 1014.0
20260507073009 61 41 5.0 8.0 0.00 0.21 0.21 90 1014.0
20260507072007 62 53 0.0 4.0 0.00 0.21 0.21 90 1015.0
20260507071509 62 80 0.0 4.0 0.00 0.21 0.21 90 1015.0
20260507070507 62 90 2.0 5.0 0.00 0.21 0.21 91 1015.0
20260507070012 62 88 0.0 5.0 0.00 0.21 0.21 91 1015.0
20260507065507 62 87 3.0 4.0 0.00 0.21 0.21 91 1015.0
20260507065007 62 66 2.0 4.0 0.00 0.21 0.21 91 1015.0
20260507064509 62 63 0.0 3.0 0.00 0.21 0.21 92 1015.0
20260507063506 62 58 0.0 5.0 0.00 0.21 0.21 92 1015.0
20260507063009 62 53 2.0 5.0 0.00 0.21 0.21 92 1015.0
20260507062506 62 59 0.0 4.0 0.00 0.21 0.21 92 1015.0
20260507062006 61 63 3.0 4.0 0.00 0.21 0.21 92 1015.0
20260507060507 61 40 3.0 3.0 0.00 0.21 0.21 92 1015.0
20260507060010 61 28 0.0 3.0 0.00 0.21 0.21 92 1015.0
20260507055506 61 38 0.0 3.0 0.00 0.21 0.21 92 1015.0
20260507054509 61 74 0.0 3.0 0.00 0.21 0.21 92 1015.0
20260507054006 61 66 0.0 3.0 0.00 0.21 0.21 92 1015.0
20260507053506 61 75 0.0 3.0 0.00 0.21 0.21 92 1015.0
20260507053009 61 105 0.0 3.0 0.00 0.21 0.21 92 1015.0
20260507052007 61 169 0.0 3.0 0.00 0.21 0.21 92 1015.0
20260507051510 61 156 0.0 3.0 0.00 0.21 0.21 92 1015.0
20260507051006 61 142 0.0 3.0 0.00 0.21 0.21 92 1015.0
20260507050009 60 55 0.0 4.0 0.00 0.21 0.21 93 1014.0
20260507045006 60 5 2.0 4.0 0.00 0.21 0.21 94 1014.0
20260507044006 60 29 2.0 6.0 0.00 0.21 0.21 95 1014.0
20260507042506 60 20 3.0 6.0 0.01 0.21 0.21 96 1014.0
20260507042006 61 24 3.0 4.0 0.01 0.21 0.21 96 1014.0
20260507041509 61 30 3.0 4.0 0.02 0.21 0.21 96 1014.0
20260507041006 61 32 2.0 4.0 0.03 0.21 0.21 96 1014.0
20260507040507 61 33 0.0 4.0 0.04 0.21 0.21 96 1014.0
20260507040009 61 36 3.0 5.0 0.04 0.21 0.21 96 1014.0
20260507035506 61 42 4.0 5.0 0.04 0.21 0.21 96 1014.0
20260507035006 61 44 3.0 4.0 0.05 0.21 0.21 96 1014.0
20260507034509 61 31 0.0 7.0 0.04 0.20 0.20 95 1014.0
20260507034007 61 24 4.0 7.0 0.04 0.20 0.20 95 1014.0
20260507033507 61 24 3.0 4.0 0.04 0.20 0.20 95 1014.0
20260507032007 61 47 0.0 4.0 0.04 0.20 0.20 95 1014.0
20260507031510 61 64 0.0 4.0 0.03 0.19 0.19 95 1014.0
20260507031007 61 68 0.0 3.0 0.02 0.18 0.18 95 1014.0
20260507030507 61 61 2.0 4.0 0.01 0.17 0.17 95 1014.0
20260507030009 61 59 0.0 4.0 0.00 0.17 0.17 95 1014.0
20260507025506 61 83 3.0 4.0 0.00 0.17 0.17 95 1014.0
20260507025006 61 108 2.0 5.0 0.00 0.16 0.16 94 1014.0
20260507024509 61 110 3.0 5.0 0.00 0.16 0.16 94 1014.0
20260507024006 61 113 0.0 6.0 0.00 0.16 0.16 94 1014.0
20260507023506 61 116 3.0 6.0 0.01 0.16 0.16 94 1014.0
20260507023009 61 122 0.0 4.0 0.01 0.16 0.16 93 1014.0
20260507022506 61 133 0.0 3.0 0.01 0.16 0.16 93 1014.0
20260507022006 61 155 0.0 4.0 0.02 0.16 0.16 93 1013.0
20260507021006 61 174 3.0 4.0 0.03 0.16 0.16 93 1013.0
20260507020506 61 15 0.0 4.0 0.03 0.16 0.16 93 1012.0
20260507020009 61 22 2.0 6.0 0.04 0.16 0.16 94 1012.0
20260507015007 61 17 3.0 7.0 0.04 0.16 0.16 95 1012.0
20260507014510 61 16 4.0 7.0 0.04 0.16 0.16 95 1012.0
20260507014006 61 8 4.0 6.0 0.04 0.16 0.16 95 1012.0
20260507013507 61 10 4.0 5.0 0.03 0.15 0.15 95 1014.0
20260507013009 62 32 3.0 4.0 0.03 0.15 0.15 95 1014.0
20260507012006 62 33 3.0 4.0 0.02 0.15 0.15 94 1014.0
20260507011509 62 52 3.0 4.0 0.02 0.14 0.14 94 1014.0
20260507011006 62 127 0.0 4.0 0.01 0.13 0.13 94 1014.0
20260507010506 62 129 0.0 3.0 0.01 0.13 0.13 94 1014.0
20260507010009 62 108 0.0 3.0 0.00 0.13 0.13 94 1014.0
20260507005006 62 49 0.0 3.0 0.00 0.12 0.12 94 1013.0
20260507004509 62 28 0.0 4.0 0.00 0.12 0.12 94 1013.0
20260507004006 62 36 3.0 4.0 0.00 0.12 0.12 94 1013.0
20260507003506 62 67 0.0 3.0 0.00 0.12 0.12 94 1014.0
20260507003009 62 100 0.0 3.0 0.00 0.12 0.12 94 1014.0
20260507002506 62 102 0.0 3.0 0.00 0.12 0.12 94 1014.0
20260507002006 62 99 0.0 4.0 0.01 0.12 0.12 94 1013.0
20260507001006 62 117 2.0 4.0 0.04 0.12 0.12 94 1013.0
20260507000009 62 110 0.0 3.0 0.06 0.12 0.12 94 1013.0
20260506235006 62 99 0.0 4.0 0.07 0.12 0.12 95 1013.0
20260506234509 62 112 2.0 3.0 0.09 0.12 0.12 95 1013.0
20260506233506 62 46 0.0 4.0 0.11 0.12 0.12 95 1013.0
20260506233009 61 39 3.0 4.0 0.11 0.12 0.12 95 1013.0
20260506232506 62 26 2.0 4.0 0.11 0.12 0.12 94 1013.0
20260506232006 62 18 3.0 4.0 0.11 0.11 0.11 94 1013.0
20260506231509 62 20 0.0 5.0 0.10 0.10 0.10 94 1013.0
20260506231006 62 24 3.0 5.0 0.08 0.08 0.08 93 1013.0
20260506230506 62 34 0.0 3.0 0.07 0.07 0.07 93 1013.0
20260506230009 62 44 0.0 3.0 0.07 0.07 0.07 93 1013.0
20260506225507 62 43 0.0 3.0 0.06 0.06 0.06 93 1013.0
20260506224509 62 91 0.0 3.0 0.02 0.02 0.02 92 1014.0
20260506224006 62 91 3.0 3.0 0.02 0.02 0.02 91 1014.0
20260506223506 62 69 0.0 3.0 0.01 0.01 0.01 91 1014.0
20260506223009 62 73 0.0 3.0 0.01 0.01 0.01 91 1014.0
20260506222507 63 112 0.0 3.0 0.01 0.01 0.01 90 1014.0
20260506222006 63 112 0.0 2.0 0.00 0.00 0.00 90 1014.0
20260506221006 63 112 0.0 3.0 0.00 0.00 0.00 89 1014.0
20260506220506 63 139 0.0 3.0 0.00 0.00 0.00 88 1014.0
20260506220009 63 156 0.0 3.0 0.00 0.00 0.00 88 1014.0
20260506215506 63 160 0.0 3.0 0.00 0.00 0.00 88 1014.0
20260506214006 63 131 0.0 3.0 0.00 0.00 0.00 87 1014.0
20260506213506 63 141 0.0 4.0 0.00 0.00 0.00 86 1014.0
20260506213009 63 136 0.0 4.0 0.00 0.00 0.00 86 1014.0
20260506212006 63 131 2.0 4.0 0.00 0.00 0.00 86 1014.0
20260506211509 63 149 2.0 4.0 0.00 0.00 0.00 86 1014.0
20260506211006 63 136 0.0 4.0 0.00 0.00 0.00 86 1014.0
20260506210009 63 118 0.0 6.0 0.00 0.00 0.00 86 1014.0
20260506205506 62 128 2.0 6.0 0.00 0.00 0.00 86 1014.0
20260506205007 63 117 0.0 4.0 0.00 0.00 0.00 85 1014.0
20260506204509 63 106 2.0 4.0 0.00 0.00 0.00 85 1014.0
20260506204007 62 102 3.0 4.0 0.00 0.00 0.00 85 1014.0
20260506203506 62 113 0.0 4.0 0.00 0.00 0.00 85 1014.0
20260506203009 63 117 2.0 4.0 0.00 0.00 0.00 85 1014.0
20260506202506 62 112 3.0 4.0 0.00 0.00 0.00 85 1014.0
20260506200507 62 113 0.0 4.0 0.00 0.00 0.00 85 1013.0